CW4778 Auckland NZ current weather conditions

sailwx.info

Wind from 340 at 6 knots gusting 12

Air temperature 20.0° C
Dewpoint 18.7° C

Last reported at 2015-Mar-05 13:28 UTC.
Time now 2015-Mar-05 14:39 UTC

Location: S 36°52' E 174°44'.
View on Google Maps.

See reports from other nearby stations

  
Tides and Currents Weather Stations Pressure Air Temp Water Temp Dewpoint Dewpoint Depression Visibility Wind Speed Wind Dir Waves Ship Positions
date/time (UTC)wind fromknots sea level pressurealtimeterstation pressurevisibilityair tempwater tempwave heightnotes
2015-Mar-05 13:28 340 6 gusting 12 20.0
2015-Mar-05 13:18 013 2 gusting 7 20.6
2015-Mar-05 12:48 008 4 gusting 11 20.6
2015-Mar-05 12:38 336 3 gusting 13 20.6
2015-Mar-05 12:28 023 4 gusting 8 20.6
2015-Mar-05 12:18 031 3 gusting 15 20.6
2015-Mar-05 12:08 025 5 gusting 15 20.6
2015-Mar-05 11:58 042 2 gusting 14 20.6
2015-Mar-05 11:48 034 6 gusting 12 20.6
2015-Mar-05 11:38 023 6 gusting 13 20.6
2015-Mar-05 11:28 022 5 gusting 10 20.6
2015-Mar-05 11:18 20.6
2015-Mar-05 11:08 015 7 gusting 13 20.6
2015-Mar-05 10:58 012 5 gusting 11 20.6
2015-Mar-05 10:48 008 6 gusting 12 20.6
2015-Mar-05 10:38 022 7 gusting 15 20.6
2015-Mar-05 10:28 040 5 gusting 13 20.6
2015-Mar-05 10:18 001 9 gusting 13 20.6
2015-Mar-05 10:08 353 5 gusting 12 20.6
2015-Mar-05 09:58 038 4 gusting 11 20.6
2015-Mar-05 09:48 052 6 gusting 11 20.6
2015-Mar-05 09:38 20.6
2015-Mar-05 09:28 340 4 gusting 13 20.6
2015-Mar-05 09:18 040 6 gusting 11 20.6
2015-Mar-05 09:08 004 6 gusting 13 21.1
2015-Mar-05 08:58 045 4 gusting 11 21.1
2015-Mar-05 08:48 023 5 gusting 11 21.1
2015-Mar-05 08:38 012 3 gusting 10 21.1
2015-Mar-05 08:28 050 4 gusting 8 20.6
2015-Mar-05 08:18 070 5 gusting 13 21.1
2015-Mar-05 07:48 035 6 gusting 12 21.1
2015-Mar-05 07:38 011 6 gusting 10 21.1
2015-Mar-05 07:28 061 5 gusting 12 21.1
2015-Mar-05 07:18 045 5 gusting 10 21.1
2015-Mar-05 07:08 031 6 gusting 11 21.7
2015-Mar-05 06:58 059 7 gusting 13 21.7
2015-Mar-05 06:48 039 4 gusting 8 21.7
2015-Mar-05 06:38 044 5 gusting 12 21.7
2015-Mar-05 06:28 334 5 gusting 12 21.7
2015-Mar-05 06:18 052 4 gusting 11 21.7
2015-Mar-05 06:08 009 6 gusting 11 22.2
2015-Mar-05 05:58 024 5 gusting 12 22.2
2015-Mar-05 05:48 035 6 gusting 12 22.2
2015-Mar-05 05:38 036 7 gusting 13 22.2
2015-Mar-05 05:28 003 4 gusting 13 22.8
2015-Mar-05 05:18 062 6 gusting 13 22.8
2015-Mar-05 04:48 019 6 gusting 12 23.9
2015-Mar-05 04:38 026 6 gusting 11 23.3
2015-Mar-05 04:28 042 4 gusting 11 23.9
2015-Mar-05 04:18 029 5 gusting 12 23.9
2015-Mar-05 04:08 032 6 gusting 13 23.3
2015-Mar-05 03:58 022 5 gusting 11 23.9
2015-Mar-05 03:48 024 5 gusting 11 23.9
2015-Mar-05 03:38 010 6 gusting 12 24.4
2015-Mar-05 03:28 002 5 gusting 12 24.4
2015-Mar-05 03:18 035 6 gusting 13 23.9
2015-Mar-05 03:08 002 8 gusting 12 24.4
2015-Mar-05 02:58 014 6 gusting 13 24.4
2015-Mar-05 02:08 356 6 gusting 13 26.1
2015-Mar-05 01:58 007 6 gusting 12 26.1
2015-Mar-05 01:48 024 7 gusting 12 26.1
2015-Mar-05 01:38 050 6 gusting 11 26.1
2015-Mar-05 01:28 017 6 gusting 12 25.6
2015-Mar-05 01:18 041 6 gusting 14 26.1
2015-Mar-05 01:08 016 4 gusting 12 26.1
2015-Mar-05 00:58 347 2 gusting 8 26.1
2015-Mar-05 00:48 046 6 gusting 11 25.6
2015-Mar-05 00:38 050 6 gusting 11 25.6
2015-Mar-05 00:28 356 4 gusting 11 25.6
2015-Mar-05 00:18 011 6 gusting 13 25.6
2015-Mar-05 00:08 004 7 gusting 13 25.6
2015-Mar-04 23:58 026 6 gusting 13 25.6
2015-Mar-04 23:48 356 7 gusting 13 25.6
2015-Mar-04 23:38 052 6 gusting 10 25.6
2015-Mar-04 23:28 047 3 gusting 11 26.7
2015-Mar-04 23:18 013 5 gusting 8 25.6
2015-Mar-04 23:08 339 5 gusting 12 25.0
2015-Mar-04 22:58 106 6 gusting 13 25.0
2015-Mar-04 22:48 083 5 gusting 10 25.0
2015-Mar-04 22:38 065 5 gusting 10 25.0
2015-Mar-04 22:28 093 5 gusting 8 25.0
2015-Mar-04 22:18 040 4 gusting 6 25.6
2015-Mar-04 22:08 082 1 gusting 6 25.0
2015-Mar-04 21:58 043 2 gusting 7 25.0
2015-Mar-04 21:48 107 5 gusting 8 23.9
2015-Mar-04 21:38 076 2 gusting 10 25.0
2015-Mar-04 21:28 096 5 gusting 8 24.4
2015-Mar-04 21:18 149 3 gusting 6 23.3
2015-Mar-04 21:08 106 23.3
2015-Mar-04 20:58 202 0 gusting 4 24.4
2015-Mar-04 20:48 136 1 gusting 4 23.9
2015-Mar-04 20:38 102 0 gusting 5 23.3
2015-Mar-04 20:28 298 21.7
2015-Mar-04 20:18 294 0 gusting 1 21.1
2015-Mar-04 20:08 307 21.1
2015-Mar-04 19:58 284 20.6
2015-Mar-04 19:08 195 18.3
2015-Mar-04 18:58 196 17.8
2015-Mar-04 18:48 197 17.8
2015-Mar-04 18:38 195 17.2
2015-Mar-04 18:28 195 17.2
2015-Mar-04 18:18 196 17.2
2015-Mar-04 18:08 195 17.2
2015-Mar-04 17:58 195 16.7
2015-Mar-04 17:48 196 16.7
2015-Mar-04 17:38 196 16.7
2015-Mar-04 17:28 197 16.7
2015-Mar-04 17:18 196 16.7
2015-Mar-04 17:08 197 17.2
2015-Mar-04 16:58 196 16.7
2015-Mar-04 16:48 194 17.2
2015-Mar-04 16:38 196 17.2
2015-Mar-04 16:28 199 17.2
2015-Mar-04 16:18 197 0 gusting 2 17.2
2015-Mar-04 16:08 198 17.2
2015-Mar-04 15:58 197 17.2
2015-Mar-04 15:48 199 17.2
2015-Mar-04 15:38 198 17.8
2015-Mar-04 15:28 197 17.8
2015-Mar-04 15:18 196 17.8
2015-Mar-04 15:08 199 17.8
2015-Mar-04 14:58 195 0 gusting 2 17.8
2015-Mar-04 14:48 062 0 gusting 1 17.8
2015-Mar-04 14:38 057 0 gusting 2 17.8
2015-Mar-04 14:28 057 17.8
2015-Mar-04 14:18 056 17.8
2015-Mar-04 14:08 055 17.8
2015-Mar-04 13:58 056 17.8
2015-Mar-04 13:48 056 18.3
2015-Mar-04 13:38 056 18.3
2015-Mar-04 13:28 056 18.3
2015-Mar-04 13:18 056 18.9
2015-Mar-04 13:08 054 18.9
2015-Mar-04 12:58 057 18.9
2015-Mar-04 12:48 055 19.4
2015-Mar-04 12:38 056 18.9
2015-Mar-04 12:08 057 20.0
2015-Mar-04 11:58 056 2 gusting 6 20.0
2015-Mar-04 11:48 030 2 gusting 6 20.0
2015-Mar-04 11:38 041 3 gusting 6 20.6
2015-Mar-04 11:28 057 3 gusting 7 20.6
2015-Mar-04 11:18 047 4 gusting 10 20.6
2015-Mar-04 11:08 053 0 gusting 6 20.6
2015-Mar-04 10:58 047 2 gusting 6 20.6
2015-Mar-04 10:48 042 4 gusting 8 20.6
2015-Mar-04 10:38 063 4 gusting 10 20.6
2015-Mar-04 10:28 050 4 gusting 8 20.6
2015-Mar-04 10:18 045 3 gusting 6 20.6
2015-Mar-04 10:08 041 2 gusting 10 20.6
2015-Mar-04 09:58 026 1 gusting 8 20.6
2015-Mar-04 09:48 036 3 gusting 6 20.6
2015-Mar-04 09:38 033 1 gusting 6 20.6
2015-Mar-04 09:28 034 2 gusting 6 20.6
2015-Mar-04 09:18 032 1 gusting 7 21.1
2015-Mar-04 09:08 036 2 gusting 6 21.1
2015-Mar-04 08:58 012 2 gusting 6 21.1
2015-Mar-04 08:48 051 2 gusting 6 21.1
2015-Mar-04 08:38 024 4 gusting 6 21.1
2015-Mar-04 08:28 043 1 gusting 5 21.1
2015-Mar-04 08:18 043 2 gusting 6 21.1
2015-Mar-04 08:08 035 1 gusting 6 21.1
2015-Mar-04 07:58 006 2 gusting 6 21.1
2015-Mar-04 07:48 003 5 gusting 8 21.1
2015-Mar-04 07:38 21.1
2015-Mar-04 07:28 035 1 gusting 5 21.1
2015-Mar-04 07:18 358 1 gusting 6 21.7
2015-Mar-04 07:08 043 1 gusting 4 21.1
2015-Mar-04 06:58 21.1
2015-Mar-04 06:48 048 1 gusting 6 21.1
2015-Mar-04 06:38 352 4 gusting 6 21.7
2015-Mar-04 06:28 026 2 gusting 6 21.7
2015-Mar-04 06:18 024 4 gusting 6 21.7
2015-Mar-04 06:08 048 2 gusting 7 22.2
2015-Mar-04 05:58 066 4 gusting 7 22.2
2015-Mar-04 05:48 002 0 gusting 6 22.2
2015-Mar-04 05:38 049 0 gusting 6 22.2
2015-Mar-04 05:28 044 1 gusting 7 22.8
2015-Mar-04 05:18 352 3 gusting 6 22.8
2015-Mar-04 05:08 359 1 gusting 6 22.8
2015-Mar-04 04:58 354 4 gusting 6 22.8
2015-Mar-04 04:48 049 4 gusting 6 23.3
2015-Mar-04 03:38 005 4 gusting 7 23.9
2015-Mar-04 03:28 350 2 gusting 6 23.3
2015-Mar-04 03:18 003 1 gusting 6 23.3
2015-Mar-04 03:08 047 3 gusting 6 23.3
2015-Mar-04 02:58 029 6 gusting 11 23.9
2015-Mar-04 02:48 018 5 gusting 10 24.4
2015-Mar-04 02:38 001 4 gusting 11 25.0
2015-Mar-04 02:28 347 3 gusting 6 24.4
2015-Mar-04 02:18 041 4 gusting 10 24.4
2015-Mar-04 02:08 038 4 gusting 8 23.9
2015-Mar-04 01:58 043 5 gusting 13 24.4
2015-Mar-04 01:48 019 5 gusting 12 23.3
2015-Mar-04 01:18 055 6 gusting 10 23.9
2015-Mar-04 01:08 029 3 gusting 7 24.4
2015-Mar-04 00:58 336 1 gusting 10 25.0
2015-Mar-04 00:48 047 4 gusting 11 25.0
2015-Mar-04 00:38 030 5 gusting 10 25.6
2015-Mar-04 00:28 009 5 gusting 11 24.4
2015-Mar-03 23:58 353 6 gusting 10 24.4
2015-Mar-03 23:48 348 5 gusting 8 25.0
2015-Mar-03 23:38 001 6 gusting 8 24.4
2015-Mar-03 23:28 069 3 gusting 8 23.9
2015-Mar-03 23:18 045 2 gusting 8 24.4
2015-Mar-03 23:08 017 2 gusting 10 24.4
2015-Mar-03 22:58 008 5 gusting 8 23.9
2015-Mar-03 22:48 028 2 gusting 8 24.4
2015-Mar-03 22:38 095 6 gusting 7 24.4
2015-Mar-03 22:28 030 5 gusting 8 24.4
2015-Mar-03 22:18 052 2 gusting 8 23.9
2015-Mar-03 22:08 069 6 gusting 8 24.4
2015-Mar-03 21:38 014 1 gusting 6 23.9
2015-Mar-03 21:28 055 1 gusting 4 22.8
2015-Mar-03 21:18 050 0 gusting 5 22.2
2015-Mar-03 21:08 112 2 gusting 6 22.8
2015-Mar-03 20:58 090 0 gusting 5 22.2
2015-Mar-03 20:48 115 1 gusting 4 22.2
2015-Mar-03 20:38 114 0 gusting 5 21.7
2015-Mar-03 20:28 105 1 gusting 2 21.7
2015-Mar-03 20:18 120 5 gusting 6 21.1
2015-Mar-03 20:08 115 3 gusting 6 21.1
2015-Mar-03 19:58 134 1 gusting 4 20.6
2015-Mar-03 19:48 137 1 gusting 4 20.6
2015-Mar-03 18:58 151 0 gusting 4 19.4
2015-Mar-03 18:48 148 0 gusting 4 19.4
2015-Mar-03 18:38 128 1 gusting 4 18.9
2015-Mar-03 18:28 164 1 gusting 5 18.9
2015-Mar-03 18:18 171 0 gusting 2 18.9
2015-Mar-03 18:08 158 0 gusting 5 18.9
2015-Mar-03 17:58 173 0 gusting 4 18.9
2015-Mar-03 17:48 176 0 gusting 4 18.9
2015-Mar-03 17:38 177 0 gusting 4 18.9
2015-Mar-03 17:28 182 0 gusting 5 18.9
2015-Mar-03 17:18 176 0 gusting 4 18.9
2015-Mar-03 17:08 166 0 gusting 4 18.9
2015-Mar-03 16:58 171 0 gusting 2 18.9
2015-Mar-03 16:48 165 0 gusting 2 18.9
2015-Mar-03 16:38 164 19.4
2015-Mar-03 16:28 160 0 gusting 2 19.4
2015-Mar-03 16:18 145 0 gusting 2 19.4
2015-Mar-03 16:08 143 0 gusting 1 19.4
2015-Mar-03 15:58 145 1 gusting 4 20.0
2015-Mar-03 15:48 150 19.4
2015-Mar-03 15:38 152 19.4
2015-Mar-03 15:28 151 19.4
2015-Mar-03 15:18 132 1 gusting 6 20.0
2015-Mar-03 15:08 112 1 gusting 2 20.0
2015-Mar-03 14:58 100 1 gusting 5 20.0
2015-Mar-03 14:48 101 0 gusting 5 20.0
2015-Mar-03 14:38 103 0 gusting 2 20.0
2015-Mar-03 14:28 105 1 gusting 5 20.0
2015-Mar-03 14:18 129 0 gusting 5 20.0
2015-Mar-03 14:08 127 1 gusting 4 20.0